Location: La Pernelle
(49.6188°N, 1.2999°W)
Time: 12:51:59
(UTC+00:00)

Terra - Pass Details

Date: 12 June 2021
Orbit: 701 x 703 km, 98.2° (Epoch: 30 July)

Event Time Altitude Azimuth Distance (km) Brightness Sun altitude
Exits shadow 21:30:37 12° 150° (SSE) 2,016 3.5 -9.5°
Maximum altitude 21:34:55 62° 71° (ENE) 798 2.0 -9.9°
Drops below altitude 10° 21:39:38 10° 352° (N) 2,184 5.5 -10.3°
Sets 21:41:55 0° 349° (N) 3,107 6.6 -10.5°
